Regional Weather Roundup
Issued by NWS

Home | Current Version | Previous Version | Text Only | Print | Product List | Glossary On
Versions: 1 2 3 4 5 6 7 8 9 10 11 12 13 14 15 16 17 18 19 20 21 22 23 24 25 26 27 28 29 30 31 32 33 34 35 36 37 38 39 40 41 42 43 44 45 46 47 48 49 50
000
ASUS44 KLIX 180013
RWRLA
LOUISIANA WEATHER ROUNDUP
NATIONAL WEATHER SERVICE NEW ORLEANS LA
600 PM CST SUN DEC 17 2017

NOTE: "FAIR" INDICATES FEW OR NO CLOUDS BELOW 12,000 FEET WITH NO
      SIGNIFICANT WEATHER AND/OR OBSTRUCTIONS TO VISIBILITY.
      SKY/WX - SKY CONDITION AND SIGNIFICANT WEATHER.
      TMP - AIR TEMPERATURE.    DP   - DEWPOINT TEMPERATURE.
      RH  - RELATIVE HUMIDITY.  PRES - PRESSURE.
      HX  - HEAT INDEX.         WCI  - WIND CHILL INDEX.

*  THESE STATIONS ARE NOT NWS OR FAA STATIONS AND ARE NOT UNDER
   NWS QUALITY CONTROL.

LAZ040-048-061>063-065-066-069-180100-
SOUTHEAST LOUISIANA

CITY           SKY/WX    TMP DP  RH WIND       PRES   REMARKS
N.O. INTL ARPT CLOUDY    68  68 100 SE7       30.10R
6HR MIN TEMP:  68; 6HR MAX TEMP:  69; 6HR PCP:  0.27;

N.O. LAKEFRONT CLOUDY    67  66  97 SE6       30.11R FOG
6HR MIN TEMP:  65; 6HR MAX TEMP:  68; 6HR PCP:  0.29;

N.O. DOWNTOWN* CLOUDY    68  66  93 SE5       30.12R
6HR MIN TEMP:  67; 6HR MAX TEMP:  68; 6HR PCP:  0.45;

RESERVE*       CLOUDY    67  65  91 S5        30.10R
6HR MIN TEMP:  67; 6HR MAX TEMP:  69; 6HR PCP:  0.44;

SLIDELL        CLOUDY    67  65  93 S6        30.10R
6HR MIN TEMP:  66; 6HR MAX TEMP:  68; 6HR PCP:  0.67;

BATON ROUGE    MOCLDY    63  62  97 CALM      30.08S FOG
6HR MIN TEMP:  63; 6HR MAX TEMP:  66;

BOOTHVILLE     CLOUDY    66  65  96 NE7       30.12R FOG
6HR MIN TEMP:  64; 6HR MAX TEMP:  74; 6HR PCP:  0.25;

BELLE CHASSE   CLOUDY    67  66  97 CALM      30.10R
6HR MIN TEMP:  67; 6HR MAX TEMP:  68;

BOGALUSA*      CLOUDY    67  64  90 MISG      30.11R
6HR MIN TEMP:  64; 6HR MAX TEMP:  68; 6HR PCP:  0.34;

GALLIANO*      CLOUDY    66  64  91 CALM      30.11R FOG
6HR MIN TEMP:  66; 6HR MAX TEMP:  69; 6HR PCP:  0.01;

NEW ROADS*     CLOUDY    63  62  97 CALM      30.09R FOG
6HR MIN TEMP:  62; 6HR MAX TEMP:  65;

GONZALES*      FOG       64  64 100 CALM      30.09R VSB 1/4
6HR MIN TEMP:  64; 6HR MAX TEMP:  66; 6HR PCP:  0.02;

HAMMOND*       CLOUDY    63  63 100 CALM      30.10R
HOUMA*         MOCLDY    66  66 100 E3        30.10S
PORT FOURCHON* CLOUDY    66  66 100 E6        30.12R

$$

LAZ041-044-053-054-180100-
SOUTHWEST LOUISIANA

CITY           SKY/WX    TMP DP  RH WIND       PRES   REMARKS
LAKE CHARLES   CLOUDY    64  61  90 SE3       30.08R
6HR MIN TEMP:  63; 6HR MAX TEMP:  68;

LAFAYETTE      CLOUDY    65  64  97 S3        30.08R
6HR MIN TEMP:  64; 6HR MAX TEMP:  67;

PATTERSON      CLOUDY    65  64  97 CALM      30.10R
6HR MIN TEMP:  65; 6HR MAX TEMP:  67; 6HR PCP:  0.66;

SALT POINT       N/A     63  63 100 SE3       30.07S
6HR MIN TEMP:  63; 6HR MAX TEMP:  65;

NEW IBERIA     CLOUDY    64  62  93 CALM      30.09S
6HR MIN TEMP:  64; 6HR MAX TEMP:  66; 6HR PCP:  0.02;

CHENAULT AIRPK CLOUDY    63  61  94 SE3       30.09R

$$

LAZ027-028-180100-
CENTRAL LOUISIANA

CITY           SKY/WX    TMP DP  RH WIND       PRES   REMARKS
FORT POLK      MOCLDY    55  54  94 CALM      30.08R
6HR MIN TEMP:  56; 6HR MAX TEMP:  62;

ALEXANDRIA INT CLOUDY    53  52  96 CALM      30.09S FOG
6HR MIN TEMP:  51; 6HR MAX TEMP:  54;

ALEXANDRIA     CLOUDY    55  55 100 CALM      30.10S
6HR MIN TEMP:  53; 6HR MAX TEMP:  57;


$$

LAZ001-002-180100-
NORTHWEST LOUISIANA

CITY           SKY/WX    TMP DP  RH WIND       PRES   REMARKS
SHREVEPORT     CLOUDY    49  49 100 CALM      30.10S FOG
6HR MIN TEMP:  48; 6HR MAX TEMP:  50;

BARKSDALE AFB  CLOUDY    47  47 100 CALM      30.10F FOG
6HR MIN TEMP:  47; 6HR MAX TEMP:  48;

DTN SHREVEPORT CLOUDY    49  47  93 SE6       30.11S FOG
6HR MIN TEMP:  48; 6HR MAX TEMP:  50;


$$

LAZ014-016-180100-
NORTHEAST LOUISIANA

CITY           SKY/WX    TMP DP  RH WIND       PRES   REMARKS
MONROE         CLOUDY   N/A N/A N/A CALM      30.14R FOG
TALLULAH       CLOUDY    52  52 100 N3        30.12R FOG
6HR MIN TEMP:  52; 6HR MAX TEMP:  58;


$$




USA.gov is the U.S. government's official web portal to all federal, state and local government web resources and services.